GFSNGP_850_temp_021.txt.gz
Temp
14 16 18 21 22 25 22 24 24 26 22 24 22 22 23 30 31 30 28 29 29 29 30 30 29 28 27 26 25 26 26 26 26 26 26 25 24 23 23 23 22 22 21 21
13 18 20 21 23 24 25 25 24 24 22 22 24 26 25 28 30 28 31 28 29 29 32 31 31 30 30 29 27 26 26 27 27 26 26 26 25 24 23 22 22 22 22 21
10 14 16 19 23 24 25 25 25 25 24 23 23 22 23 27 29 29 32 30 28 29 30 31 33 33 30 31 30 27 27 26 26 26 26 26 25 24 23 23 22 22 22 22
9 12 17 22 25 26 25 24 23 25 24 22 24 29 30 31 33 32 32 32 32 30 30 31 34 33 32 30 29 28 28 26 24 25 27 26 25 24 24 23 23 23 23 22
11 12 15 21 24 25 23 24 23 24 24 23 25 26 26 30 31 32 33 33 33 33 33 33 33 34 31 27 27 27 27 27 27 26 26 25 26 25 24 22 23 23 23 22
10 13 15 20 17 17 23 24 23 22 23 24 21 21 24 31 31 32 32 32 33 33 33 32 33 32 30 28 26 29 29 30 29 27 26 26 27 26 24 23 23 22 22 22
12 13 15 15 14 16 21 25 21 22 23 20 22 24 31 30 29 30 31 31 32 32 34 33 32 30 29 28 27 30 31 31 26 26 26 26 26 25 25 23 22 22 21 22
12 13 13 14 14 15 15 15 21 24 24 23 24 25 26 27 28 28 29 29 30 30 30 30 30 31 30 28 32 32 29 28 27 27 26 24 24 23 23 21 21 22 21 21
14 14 13 13 12 13 14 14 14 19 22 24 21 20 23 24 25 26 27 27 28 29 30 30 29 27 27 32 32 30 27 27 26 25 25 22 23 22 21 22 21 20 21 21
13 14 13 13 12 13 13 13 15 15 18 19 18 18 20 22 23 25 26 27 28 29 30 29 28 26 26 27 27 28 29 29 28 25 23 25 24 22 22 22 21 21 22 21
13 12 13 14 12 12 13 14 15 16 16 17 18 17 18 19 21 23 23 24 24 26 26 26 23 22 23 23 24 25 25 25 24 23 21 21 19 19 19 21 23 23 22 22
13 11 12 11 11 11 12 14 15 15 16 17 18 18 19 19 19 20 21 22 23 23 23 23 23 23 21 22 22 22 23 22 21 20 20 19 18 19 19 22 22 21 19 18
11 11 11 11 10 11 13 13 15 16 15 16 16 17 18 18 19 20 20 21 22 22 22 23 23 23 23 21 19 20 20 18 18 19 18 19 18 17 17 16 15 16 18 17
10 11 11 13 11 12 13 13 14 15 16 16 16 17 17 17 18 17 18 18 19 19 19 18 19 19 19 19 17 19 18 18 18 17 17 18 18 18 20 18 14 14 17 17
10 11 11 11 12 13 13 14 14 14 15 15 16 16 16 16 15 15 16 17 17 17 17 17 17 17 19 18 15 15 16 16 16 17 16 15 16 18 18 17 14 15 16 15
9 10 11 12 12 12 13 14 14 14 14 14 15 15 15 15 15 15 15 16 16 15 15 17 16 16 16 17 12 15 16 15 15 15 18 16 16 16 16 15 16 16 16 16
9 9 11 11 11 12 12 12 12 13 14 14 15 15 15 15 15 15 14 15 15 16 15 15 15 17 17 16 15 14 14 17 17 19 17 17 17 16 16 16 16 16 16 16
10 10 10 11 11 12 12 12 13 13 13 13 14 15 15 15 14 15 15 15 15 15 16 16 16 16 17 18 18 17 17 17 18 18 17 16 16 16 16 17 17 17 17 17
10 10 11 11 11 12 12 12 12 13 13 13 13 13 14 14 14 14 14 15 15 15 14 15 16 17 17 17 17 17 17 18 17 18 18 17 17 17 17 17 17 16 16 16
10 11 11 11 11 11 12 12 13 13 13 13 13 13 13 13 13 13 14 13 13 13 14 15 15 15 16 16 16 16 17 17 17 17 17 17 17 16 16 16 17 16 16 16
10 10 11 12 12 12 12 13 13 13 13 13 13 13 12 13 12 12 12 12 13 13 13 13 14 15 15 16 16 16 16 16 16 17 17 17 17 16 17 17 17 17 16 16
12 12 11 12 12 12 12 13 13 13 13 13 13 13 13 13 12 12 12 12 12 12 13 13 13 14 14 15 15 15 15 15 16 16 16 16 15 16 16 16 16 16 16 16
11 11 11 11 11 12 12 12 12 13 13 13 13 13 12 12 13 12 12 11 12 12 12 13 13 14 14 15 14 14 14 14 14 15 15 15 14 14 15 15 15 15 15 15
11 11 11 11 12 12 11 11 12 12 11 11 12 12 12 12 12 11 11 12 11 12 11 12 12 13 13 14 14 14 14 14 14 14 14 14 14 14 14 14 14 14 14 14
10 10 10 10 10 10 11 11 11 11 11 11 11 11 11 11 11 10 11 10 10 11 10 10 11 11 12 12 13 13 13 14 14 14 14 14 14 14 14 14 14 14 14 13
9 9 9 9 9 9 10 10 9 9 9 9 9 9 10 10 10 10 10 10 9 10 9 9 9 9 9 10 10 10 10 11 11 12 13 13 13 13 13 13 13 13 13 13
8 8 9 9 8 8 8 8 9 8 8 8 8 8 8 9 9 8 8 8 8 8 8 8 8 8 8 8 8 9 9 9 9 9 10 11 9 11 12 12 12 12 12 12

GFSNGP_850_temp_024.txt.gz
Temp
12 13 15 16 17 18 19 22 22 24 23 22 22 21 23 30 28 29 30 30 30 29 28 27 27 26 27 27 27 27 26 25 25 26 26 26 26 25 24 24 23 22 22 21
11 14 15 15 17 19 20 20 20 23 21 21 23 26 24 26 28 29 32 31 31 30 29 28 27 28 28 29 28 27 27 28 26 24 25 26 26 26 25 25 24 23 22 22
10 12 13 16 19 20 20 21 22 21 22 24 21 20 22 27 29 30 31 32 31 32 30 29 29 29 29 30 30 28 28 28 27 26 26 26 25 26 26 25 24 23 22 22
8 11 13 18 17 20 21 23 21 23 22 22 24 28 30 30 30 31 31 32 32 31 32 31 30 29 29 29 30 30 28 27 27 26 26 25 24 25 26 25 25 24 23 23
9 10 14 16 18 15 14 17 22 22 22 21 26 26 24 28 29 30 32 32 33 33 33 33 31 31 30 29 29 27 28 26 25 26 26 26 25 26 26 25 25 25 24 23
8 10 12 17 14 16 14 15 20 22 23 23 20 20 22 32 30 31 31 31 31 31 31 32 31 31 30 30 30 30 29 29 29 27 26 27 27 27 26 25 25 25 24 24
8 10 12 15 14 15 18 18 14 14 16 24 21 26 29 26 28 28 29 30 31 31 31 32 31 30 30 30 30 31 30 27 26 25 26 27 27 24 23 23 23 24 24 24
8 9 11 13 16 17 15 13 14 14 15 20 23 24 26 26 25 25 26 27 29 29 29 30 29 28 27 28 30 28 27 27 26 25 25 25 25 23 26 22 22 23 22 22
9 11 11 14 13 13 13 12 13 13 15 18 22 20 21 22 23 24 24 25 25 27 26 27 27 26 24 24 24 24 24 24 24 23 21 22 22 23 24 25 20 18 19 19
8 12 13 13 13 13 15 12 12 13 15 16 18 18 19 19 20 21 22 22 23 24 25 25 24 24 25 24 24 24 23 22 23 22 22 21 20 19 19 23 21 24 21 19
9 10 14 12 12 13 15 13 12 14 15 15 18 17 18 19 20 20 21 21 22 23 23 23 23 24 25 25 25 25 24 23 22 21 21 20 19 20 18 19 19 19 18 18
10 12 13 11 12 13 15 13 13 13 15 16 17 18 19 19 20 21 22 23 23 23 24 24 24 24 24 25 25 25 24 24 23 22 21 20 19 18 19 19 19 19 18 18
9 11 15 12 11 12 14 13 13 14 14 16 16 17 18 18 17 18 19 20 21 22 22 23 24 24 24 24 24 24 24 24 22 21 21 20 18 18 18 18 19 19 16 19
8 9 10 10 10 12 12 13 13 13 14 15 15 17 18 18 18 18 18 18 18 19 19 19 19 20 21 21 22 22 22 20 21 21 20 18 18 18 17 18 16 15 17 19
9 10 11 10 13 13 13 13 13 14 13 14 14 15 16 16 16 16 17 17 17 17 18 18 19 19 19 20 20 16 15 16 16 17 17 17 17 15 14 13 12 12 15 15
9 10 9 9 11 12 13 13 12 13 13 14 14 14 14 14 15 15 16 16 17 16 16 17 17 18 18 19 17 14 15 15 15 14 13 15 14 15 16 17 15 14 13 13
9 9 9 9 10 11 11 11 11 13 13 14 14 14 14 14 14 14 15 15 16 16 16 16 16 17 17 17 16 17 15 15 15 15 13 13 14 16 18 17 17 17 14 14
9 9 10 10 10 10 11 12 13 13 13 13 14 14 13 14 13 13 14 14 15 15 15 15 16 17 16 17 17 16 15 15 15 16 14 15 14 16 17 17 17 17 16 15
9 10 10 10 11 11 12 13 13 13 13 13 13 13 13 12 13 13 14 15 15 15 15 15 15 16 16 16 16 17 17 17 17 17 17 17 16 14 16 14 15 17 17 16
10 10 10 11 11 12 12 12 12 12 12 12 12 12 12 12 12 12 13 12 12 13 13 14 15 15 16 16 16 17 17 17 17 17 17 17 16 17 17 17 17 17 16 16
9 9 9 11 11 11 12 12 12 12 12 12 12 11 11 11 12 12 12 12 12 13 13 13 14 14 15 15 16 16 16 16 16 16 15 15 15 15 14 14 15 15 15 16
9 9 10 10 11 11 11 11 12 12 12 12 12 12 12 12 11 11 11 11 12 13 13 13 13 13 14 14 14 14 14 14 15 15 15 14 14 13 13 13 14 15 15 15
9 10 10 11 11 11 12 11 11 12 11 11 11 12 11 11 11 11 10 10 11 12 12 12 13 13 14 13 14 13 13 13 13 13 14 13 13 13 13 13 13 13 13 13
10 10 10 10 11 11 11 10 10 11 10 10 10 10 10 10 10 9 9 10 11 11 11 11 12 12 12 12 12 12 13 13 13 13 13 13 14 13 13 13 13 13 13 13
9 9 9 9 9 9 9 10 10 10 10 10 9 9 9 9 9 8 9 9 9 10 10 10 11 11 11 11 11 11 11 11 11 12 13 13 13 14 14 13 13 13 13 13
8 8 8 8 8 9 9 9 9 9 9 8 8 8 7 7 7 8 7 8 8 8 8 8 8 9 9 9 9 9 9 10 9 10 10 10 10 11 12 12 12 12 13 13
7 7 7 7 7 7 8 8 8 7 7 7 7 6 6 6 6 6 5 5 5 5 6 6 7 7 7 7 8 8 7 7 7 8 8 8 9 8 8 9 8 9 9 9

GFSNGP_850_temp_030.txt.gz
Temp
24 21 22 26 28 29 28 29 28 30 30 31 31 31 31 31 31 31 31 30 30 29 29 28 28 27 25 25 25 25 24 23 23 27 27 27 27 27 26 25 25 25 24 23
20 21 21 22 24 25 27 28 29 29 29 32 31 29 30 29 29 29 30 30 31 30 28 28 27 26 26 25 25 24 24 23 23 23 25 27 26 26 26 26 26 25 25 24
20 22 21 21 23 24 25 26 26 26 28 29 29 29 29 29 29 29 29 30 30 30 30 29 28 28 27 28 24 24 24 23 22 23 24 26 24 23 25 25 24 26 25 25
19 20 18 24 27 26 25 25 27 27 27 28 28 28 28 28 29 29 30 30 30 31 31 30 29 30 27 26 25 24 24 24 23 22 23 22 22 23 24 24 23 23 25 25
17 19 22 23 23 23 24 25 27 27 28 28 28 28 28 28 29 29 29 30 30 30 30 30 29 28 27 25 24 23 24 25 27 24 21 20 22 26 24 22 21 19 19 20
17 17 18 22 25 24 24 22 26 25 26 26 26 28 29 29 29 30 30 29 29 29 29 28 29 28 26 26 25 24 27 28 25 26 24 24 24 22 21 19 19 19 19 19
15 16 19 22 22 21 20 22 23 23 23 23 24 25 25 25 25 25 26 27 27 27 28 29 29 29 29 26 26 28 23 23 24 26 26 26 25 25 23 22 20 20 20 22
14 15 15 20 21 20 20 20 20 20 21 21 21 20 20 21 22 23 25 26 26 25 27 26 27 30 30 30 29 25 24 24 23 23 24 21 23 23 22 22 22 22 21 22
15 16 18 18 19 19 17 17 18 18 19 19 19 19 19 21 22 24 24 25 24 25 24 23 26 28 28 29 28 24 23 24 23 23 24 23 22 21 19 19 20 20 20 19
14 15 16 16 16 15 16 16 16 16 18 18 18 18 19 21 22 22 23 22 22 23 22 21 24 24 25 27 26 26 25 25 24 21 21 20 21 20 20 20 20 21 21 20
13 14 14 14 14 15 15 15 16 16 17 18 17 17 20 21 20 20 20 20 20 21 20 19 20 20 21 22 21 22 21 21 21 21 21 20 20 21 21 21 22 21 21 21
13 14 13 13 13 14 14 15 15 16 16 17 15 15 16 19 19 18 18 18 18 18 18 18 18 20 22 22 23 21 20 22 22 23 23 22 22 21 21 21 21 21 21 21
12 11 12 12 12 11 12 13 14 16 17 15 14 14 14 15 15 14 16 17 17 17 17 17 17 19 22 23 23 23 21 21 20 20 22 23 23 22 22 20 21 20 21 22
8 9 8 9 9 10 11 13 14 15 15 13 13 13 13 13 14 14 15 16 16 16 16 16 16 20 20 20 20 19 21 21 19 19 19 19 19 19 19 18 18 19 19 19
4 5 6 7 9 10 11 12 13 13 13 13 13 13 13 14 14 14 15 15 15 16 16 15 15 15 15 15 15 17 17 16 16 16 19 18 17 16 16 17 17 17 17 17
4 4 5 7 8 9 11 12 11 12 13 13 13 14 14 14 15 14 14 14 14 13 13 14 15 15 14 15 16 16 16 17 16 16 15 15 14 15 15 15 15 14 13 12
8 8 8 9 9 10 11 11 11 12 12 12 12 12 12 12 13 13 14 14 14 15 15 15 13 14 15 15 16 16 16 16 16 16 15 14 14 14 14 13 13 14 14 15
9 9 9 9 10 10 10 11 11 11 11 11 11 10 10 11 11 11 14 15 14 14 15 15 14 14 15 15 15 15 15 15 16 16 15 14 14 13 14 13 12 13 13 12
6 8 9 10 10 9 10 10 9 8 8 9 10 11 11 10 11 12 13 14 14 13 12 15 15 14 14 15 17 16 15 15 15 14 14 14 13 13 13 13 13 13 12 12
7 7 7 7 8 8 8 7 7 8 8 8 9 10 9 8 10 10 12 11 9 10 10 14 12 13 14 14 15 15 15 15 14 13 13 13 14 14 15 13 13 13 12 12
7 8 7 7 8 8 9 8 9 8 8 9 9 9 9 10 11 10 10 10 9 10 10 12 13 12 12 14 14 14 13 13 13 13 13 13 13 14 13 13 13 13 12 12
7 7 7 8 7 7 8 8 8 8 8 9 9 8 8 8 8 10 9 8 9 11 9 10 11 12 11 11 10 11 11 11 11 11 11 11 12 11 11 12 13 12 12 12
7 7 7 6 6 6 8 8 8 7 8 8 7 7 7 6 7 7 7 7 8 9 9 9 10 11 11 10 9 9 9 9 10 10 10 11 11 11 11 11 11 12 11 11
7 7 7 7 7 7 6 5 8 8 7 7 6 6 6 7 6 6 5 6 6 7 8 8 8 7 8 9 10 10 10 10 8 8 10 10 10 9 9 10 10 10 10 10
6 6 6 7 7 7 7 7 6 6 5 5 4 4 4 4 4 4 4 5 6 6 5 7 7 6 7 7 7 8 8 8 9 9 8 8 9 9 8 7 6 7 9 9
5 6 6 5 5 6 6 6 6 5 5 5 4 4 4 4 4 4 4 4 4 4 4 4 5 5 5 5 6 6 6 5 6 6 6 7 8 6 6 7 7 7 7 6
6 4 5 5 5 4 4 4 4 4 4 4 4 3 3 3 3 3 3 3 3 3 3 4 3 3 4 4 4 4 4 5 4 5 5 5 5 5 6 6 6 5 4 4

GFSNGP_850_temp_036.txt.gz
Temp
28 30 32 31 31 31 31 32 31 33 33 32 33 33 34 34 35 35 34 34 34 34 32 32 31 30 28 28 27 26 25 24 23 22 22 22 22 23 24 24 25 25 24 23
24 27 29 29 31 31 32 32 33 33 34 33 34 33 33 33 32 32 32 32 32 32 32 32 31 31 30 29 28 27 26 26 24 24 23 22 22 22 22 22 23 23 23 24
21 25 27 27 29 31 32 33 33 32 34 34 33 33 33 32 32 31 31 31 31 31 32 31 31 31 30 29 29 28 27 27 26 25 24 23 22 22 22 22 22 23 23 24
20 23 22 27 30 30 31 32 33 33 34 34 33 32 32 31 31 31 31 31 31 31 32 32 31 31 30 29 29 28 28 28 27 26 25 24 24 23 22 22 22 23 22 23
20 22 24 27 28 29 29 30 32 33 34 32 31 31 30 30 30 30 30 30 30 31 31 32 32 31 31 30 29 28 27 27 27 26 25 25 24 24 22 22 22 22 23 22
19 20 22 26 29 30 30 27 29 30 30 31 30 29 27 25 25 25 26 26 27 28 30 31 32 32 31 30 29 29 29 28 27 26 26 25 24 23 22 22 22 21 22 23
18 18 23 23 25 28 26 22 23 23 23 28 28 25 24 24 24 24 24 25 25 26 28 28 30 30 31 30 29 29 29 28 27 27 26 25 24 23 22 22 21 21 21 21
18 18 18 22 24 21 21 20 21 21 21 21 21 22 23 23 22 23 23 25 26 26 27 27 28 29 29 29 30 30 29 28 27 26 25 24 23 23 22 21 21 21 21 21
19 19 21 21 21 21 21 21 20 19 20 19 20 20 20 21 21 22 23 25 25 26 27 27 27 26 27 27 27 28 28 28 27 26 24 24 23 22 21 21 21 21 21 21
17 18 19 19 19 20 19 19 19 19 18 19 19 19 20 20 21 20 20 23 24 24 25 26 26 25 24 26 25 25 26 26 25 25 24 23 23 22 21 21 21 21 21 21
15 16 17 17 18 18 18 18 18 18 18 18 18 18 18 19 20 18 19 21 22 22 23 23 22 22 23 23 23 24 25 24 24 23 23 22 22 22 22 22 21 21 21 22
13 14 14 15 16 16 17 17 17 17 17 17 17 17 17 18 19 17 18 19 21 21 21 20 20 20 21 21 22 22 22 22 23 23 23 22 22 22 22 22 22 22 23 23
9 9 10 10 11 13 14 15 16 16 16 16 17 16 16 17 17 16 17 18 19 20 20 20 19 18 19 20 21 22 22 23 23 24 25 24 24 23 23 23 23 23 23 23
3 3 5 7 9 11 12 14 15 15 16 16 15 15 15 16 16 15 17 17 18 19 19 19 18 18 18 18 20 21 22 23 23 23 24 23 23 23 23 23 21 21 21 22
8 6 5 7 8 10 12 13 13 14 14 14 14 15 16 17 15 15 16 16 17 18 18 18 18 17 17 18 18 20 21 20 20 22 22 22 22 22 22 22 21 20 20 20
8 6 9 6 7 9 11 11 11 13 13 12 13 15 16 16 15 15 15 15 17 17 17 17 16 17 17 18 19 20 20 20 19 19 19 19 18 18 18 18 17 16 16 17
8 7 5 6 7 9 10 11 11 12 12 12 12 12 15 14 15 14 14 15 15 15 15 16 16 17 17 18 20 20 19 19 19 18 18 18 18 18 17 17 16 15 15 14
6 6 7 7 8 9 9 10 10 10 10 10 10 12 13 13 13 12 13 13 13 14 14 15 16 16 17 18 19 19 20 20 19 18 17 17 17 16 15 15 14 14 14 13
5 5 5 6 6 6 7 7 7 7 8 9 10 9 9 9 9 9 10 12 13 13 13 14 15 16 17 17 18 18 18 17 17 16 16 16 15 14 13 13 12 13 13 13
5 5 5 5 6 5 5 5 6 6 5 6 7 7 7 6 7 7 8 7 7 8 12 13 13 14 15 16 16 16 16 15 15 15 15 14 13 12 12 12 12 12 12 13
6 5 5 5 4 5 5 5 5 5 4 5 5 5 4 5 5 7 7 7 8 9 10 11 12 13 14 15 15 14 14 14 13 14 13 12 12 12 11 11 11 12 12 12
8 7 6 5 5 5 5 5 5 5 4 5 4 4 4 5 5 5 5 5 6 8 9 9 9 10 12 13 13 13 13 13 12 11 11 10 10 10 10 10 10 11 11 11
8 8 8 7 6 5 4 4 3 4 4 3 3 4 3 3 4 5 5 4 6 6 7 7 7 7 8 10 10 10 11 11 11 11 10 10 9 9 9 9 9 9 10 10
8 8 8 8 8 6 6 6 5 5 5 5 4 4 5 4 4 4 5 6 6 7 7 7 7 8 8 7 8 8 9 10 10 10 10 10 9 8 8 8 7 7 8 8
8 9 8 8 9 8 7 7 7 7 6 6 6 6 5 5 5 5 5 5 5 6 6 7 7 8 8 8 8 7 7 7 8 8 8 8 8 7 6 6 6 6 6 7
8 9 8 8 8 8 8 7 6 6 7 6 6 6 6 5 5 6 6 6 6 6 6 6 6 7 7 7 7 7 7 7 7 7 7 7 7 7 7 6 6 6 5 5
8 8 8 8 8 7 7 7 6 6 5 6 6 5 6 5 5 6 6 6 6 6 6 6 6 6 6 6 6 6 6 6 6 7 6 6 6 5 5 4 4 4 4 4